This is the latest recevied weather packets stored in our database for station/object KB1QVF. If no packets are shown the sender has not sent any weather packets the latest 10 day(s).
| Time | Temp. | Humidity | Pressure | Rain* | Wind** | Luminosity | Snow |
|---|---|---|---|---|---|---|---|
| 1777465901 | 8.33° C | 82% | 1019.2 hPa | 0 mm | - | 175 W/m² | - |
| 1777465597 | 8.33° C | 82% | 1019.3 hPa | 0 mm | - | 167 W/m² | - |
| 1777465292 | 7.78° C | 83% | 1019.4 hPa | 0 mm | - | 182 W/m² | - |
| 1777464987 | 7.78° C | 83% | 1019.5 hPa | 0 mm | - | 191 W/m² | - |
| 1777464682 | 7.78° C | 84% | 1019.3 hPa | 0 mm | - | 159 W/m² | - |
| 1777464379 | 7.78° C | 85% | 1019.6 hPa | 0 mm | - | 238 W/m² | - |
| 1777464075 | 7.22° C | 87% | 1019.5 hPa | 0 mm | - | 165 W/m² | - |
| 1777463774 | 6.67° C | 88% | 1019.4 hPa | 0 mm | - | 139 W/m² | - |
| 1777463470 | 6.67° C | 88% | 1019.6 hPa | 0 mm | - | 126 W/m² | - |
| 1777463166 | 6.67° C | 88% | 1019.6 hPa | 0 mm | - | 121 W/m² | - |
| 1777462862 | 6.67° C | 89% | 1019.3 hPa | 0 mm | - | 117 W/m² | - |
| 1777462557 | 6.67° C | 89% | 1019.2 hPa | 0 mm | - | 98 W/m² | - |
| 1777462253 | 6.67° C | 90% | 1019.2 hPa | 0 mm | - | 92 W/m² | - |
| 1777461950 | 6.11° C | 90% | 1019.5 hPa | 0 mm | - | 82 W/m² | - |
| 1777461647 | 6.11° C | 91% | 1019.2 hPa | 0 mm | - | 77 W/m² | - |
| 1777461342 | 6.11° C | 91% | 1019.5 hPa | 0 mm | - | 72 W/m² | - |
| 1777461038 | 6.11° C | 91% | 1019.6 hPa | 0 mm | - | 61 W/m² | - |
| 1777460734 | 6.11° C | 91% | 1019.6 hPa | 0 mm | - | 50 W/m² | - |
| 1777460430 | 6.11° C | 91% | 1019.4 hPa | 0 mm | - | 43 W/m² | - |
| 1777460126 | 6.11° C | 91% | 1019.4 hPa | 0 mm | - | 43 W/m² | - |
| 1777459823 | 6.11° C | 92% | 1019.4 hPa | 0 mm | - | 40 W/m² | - |
| 1777459520 | 5.56° C | 92% | 1019.3 hPa | 0 mm | - | 36 W/m² | - |
| 1777459218 | 5.56° C | 92% | 1019.3 hPa | 0 mm | - | 32 W/m² | - |
| 1777458915 | 5.56° C | 92% | 1019 hPa | 0 mm | - | 27 W/m² | - |
| 1777458611 | 5.56° C | 92% | 1019.1 hPa | 0 mm | - | 23 W/m² | - |
* Rain latest hour (hover to see other rain measurements)
** Current wind speed in m/s (hover to see current wind gust speed)